Find Starlink 30714

NORAD ID: 57939 Int'l Des: 2023-148 Owner: SPXS Country: US Constellation: starlink operational
LEOCIRCULAR

現在のビュー

3D地球を読み込み中...

About Starlink 30714

Starlink 30714 (NORAD 57939) is a starlink constellation satellite (v2 mini) launched Sep 25, 2023 by SPXS of US. It operates in LEO, CIRCULAR orbit with a mass of 730.00 kg.

Starlink 30714について

説明を読み込み中...

次回通過

Passes for default location (London). Set your location on the main map for personalized predictions.

高度履歴

Loading altitude history...

軌道要素

1 57939U 23148E 26175.90643110 .00007650 00000-0 26897-3 0 9999
2 57939 53.1584 246.4673 0001307 71.6665 288.4478 15.30342066154837
Epoch: Jun 24, 2026 • Age: 15 hours

現在のステータス

高度 478.6 km
速度 7.63 km/s
衛星直下点 -12.40°S, 31.33°W
打ち上げ日 Sep 25, 2023
運用期間 2.7 years
タイプ internet

技術仕様

分類 Payload
質量 730.00 kg
乾燥質量 700.00 kg
総質量 730.00 kg
長さ 0.30 m
直径 4.10 m
スパン 29.00 m
形状 Box + pan
製造者 SPXS
バスタイプ Starlink V2M
フェーズステータス In Orbit
所有者/国 SPXS/US

Most Searched